AFP1 LPPR-LPPT

Flight info

Callsign AFP1
Flight time N/A
Altitude 18000
Route FGFOZ NZARE ODIVL
Aircraft F16/M-V/N

Departure

Time 2026-05-05 16:14
Airport Francisco de Sá Carneiro Airport (LPPR)

Arrival

Time N/A
Airport Lisbon Humberto Delgado Airport (LPPT)
Time Latitude Longitude Altitude Speed Heading
2026-05-05 15:48 41.23984 -8.67639 233 ft 0 kts 80°
2026-05-05 16:07 41.23989 -8.67604 233 ft 19 kts 79°
2026-05-05 16:07 41.23927 -8.67554 234 ft 17 kts 260°
2026-05-05 16:07 41.23906 -8.67711 226 ft 19 kts 258°
2026-05-05 16:08 41.23899 -8.67758 222 ft 0 kts 259°
2026-05-05 16:13 41.23933 -8.67898 217 ft 0 kts 347°
2026-05-05 16:13 41.23944 -8.67902 217 ft 20 kts 347°
2026-05-05 16:14 41.25691 -8.68363 370 ft 223 kts 346°
2026-05-05 16:14 41.28551 -8.69891 1475 ft 229 kts 309°
2026-05-05 16:15 41.27437 -8.72615 3872 ft 260 kts 182°
2026-05-05 16:15 41.24382 -8.71420 8102 ft 231 kts 163°
2026-05-05 16:16 41.20708 -8.69877 8778 ft 283 kts 166°
2026-05-05 16:16 41.16928 -8.68494 9653 ft 285 kts 165°
2026-05-05 16:17 41.13027 -8.67343 10969 ft 289 kts 175°
2026-05-05 16:17 41.10922 -8.66996 12305 ft 330 kts 175°
2026-05-05 16:18 41.05888 -8.66218 16315 ft 390 kts 177°
2026-05-05 16:18 41.02967 -8.65886 17775 ft 469 kts 180°
2026-05-05 16:18 40.95335 -8.65319 18442 ft 596 kts 180°
2026-05-05 16:19 40.91188 -8.65246 18018 ft 591 kts 185°
2026-05-05 16:19 40.87094 -8.65441 17910 ft 590 kts 185°
2026-05-05 16:19 40.78918 -8.66267 17921 ft 588 kts 190°
2026-05-05 16:20 40.70811 -8.67751 17999 ft 588 kts 191°
2026-05-05 16:20 40.62693 -8.69283 18027 ft 589 kts 191°
2026-05-05 16:21 40.54269 -8.70895 18112 ft 642 kts 191°
2026-05-05 16:22 40.41035 -8.73576 17229 ft 636 kts 192°
2026-05-05 16:22 40.32472 -8.75408 16305 ft 573 kts 192°
2026-05-05 16:23 40.25612 -8.76770 15389 ft 430 kts 192°
2026-05-05 16:23 40.22805 -8.77279 14499 ft 384 kts 191°